Tracking 18980 objects as of 18-Feb-2018
HD Live streaming from Space Station
objects crossing your sky now

NAXING 1

Track NAXING 1 now!
10-day predictions
NAXING 1 is classified as:


NORAD ID: 28221
Int'l Code: 2004-012B
Perigee: 584.6 km
Apogee: 601.4 km
Inclination: 97.7 °
Period: 96.4 minutes
Semi major axis: 6964 km
RCS: 0.3151 m2 (medium)
Launch date: April 18, 2004
Source: People's Republic of China (PRC)
Launch site: Xichang Space Center, China (XSC)

China's first nano-satellite; high-tech demonstration experiments
aabbcc
Your satellite tracking list
Your tracking list is empty




NASA's NSSDC Master Catalog

Two Line Element Set (TLE):
1 28221U 04012B   18048.81811457  .00000000  00000-0  53579-5 0  9992
2 28221  97.7407 355.6320 0012085  94.4936 265.7665 14.93872930752216
Source of the keplerian elements: AFSPC